Location: Newark
(42.0333°N, 13.0667°E)
Time: 09:50:42
(UTC+00:00)

ISS - Pass Details

Date: 28 November 2019
Orbit: 411 x 421 km, 51.6° (Epoch: 09 December)

Event Time Altitude Azimuth Distance (km) Brightness Sun altitude
Rises 17:24:43 0° 284° (WNW) 2,356 1.2 -19.3°
Reaches altitude 10° 17:27:17 10° 304° (NW) 1,496 -0.4 -19.8°
Maximum altitude 17:29:40 18° 349° (N) 1,109 -1.7 -20.2°
Enters shadow 17:29:41 18° 350° (N) 1,109 -1.7 -20.2°
